This is the latest recevied weather packets stored in our database for station/object PP5CFL-13. If no packets are shown the sender has not sent any weather packets the latest 10 day(s).
| Time | Temp. | Humidity | Pressure | Rain* | Wind** | Luminosity | Snow |
|---|---|---|---|---|---|---|---|
| 1777829921 | 21.11° C | 46% | 1025.1 hPa | - | - | - | - |
| 1777829621 | 21.67° C | 46% | 1025.1 hPa | - | - | - | - |
| 1777829321 | 21.67° C | 46% | 1025.1 hPa | - | - | - | - |
| 1777829021 | 21.67° C | 46% | 1025.1 hPa | - | - | - | - |
| 1777828721 | 22.22° C | 44% | 1025 hPa | - | - | - | - |
| 1777828421 | 22.22° C | 45% | 1025.2 hPa | - | - | - | - |
| 1777828121 | 22.22° C | 45% | 1025.1 hPa | - | - | - | - |
| 1777827821 | 22.22° C | 44% | 1025.3 hPa | - | - | - | - |
| 1777827521 | 22.22° C | 44% | 1025.2 hPa | - | - | - | - |
| 1777827221 | 22.22° C | 44% | 1025.3 hPa | - | - | - | - |
| 1777826921 | 21.67° C | 45% | 1025.3 hPa | - | - | - | - |
| 1777826621 | 21.67° C | 45% | 1025.3 hPa | - | - | - | - |
| 1777826321 | 21.67° C | 45% | 1025.4 hPa | - | - | - | - |
| 1777826021 | 21.67° C | 46% | 1025.6 hPa | - | - | - | - |
| 1777825721 | 21.11° C | 48% | 1025.7 hPa | - | - | - | - |
| 1777825421 | 20.56° C | 48% | 1025.7 hPa | - | - | - | - |
| 1777825121 | 20.56° C | 49% | 1025.8 hPa | - | - | - | - |
| 1777824821 | 20.56° C | 50% | 1025.9 hPa | - | - | - | - |
| 1777824521 | 20.56° C | 50% | 1026.1 hPa | - | - | - | - |
| 1777824221 | 20.56° C | 49% | 1026.3 hPa | - | - | - | - |
| 1777823921 | 20.56° C | 49% | 1026.2 hPa | - | - | - | - |
| 1777823621 | 21.11° C | 50% | 1026.3 hPa | - | - | - | - |
| 1777823321 | 20.56° C | 50% | 1026.4 hPa | - | - | - | - |
| 1777823021 | 20.56° C | 51% | 1026.5 hPa | - | - | - | - |
| 1777822721 | 20.56° C | 50% | 1026.5 hPa | - | - | - | - |
* Rain since midnight (hover to see other rain measurements)
** Current wind speed in m/s (hover to see current wind gust speed)